This is the latest recevied weather packets stored in our database for station/object N1IJV-10. If no packets are shown the sender has not sent any weather packets the latest 1 day(s).
| Time | Temp. | Humidity | Pressure | Rain* | Wind** | Luminosity | Snow |
|---|---|---|---|---|---|---|---|
| 1778045081 | 8.33° C | 61% | 1010.1 hPa | 0 mm | 0 m/s | 0 W/m² | - |
| 1778044778 | 8.33° C | 59% | 1010 hPa | 0 mm | 0 m/s | 0 W/m² | - |
| 1778044474 | 8.89° C | 58% | 1009.9 hPa | 0 mm | 0 m/s | 0 W/m² | - |
| 1778044172 | 9.44° C | 56% | 1009.9 hPa | 0 mm | 0.45 m/s, 75° | 0 W/m² | - |
| 1778043869 | 9.44° C | 56% | 1009.9 hPa | 0 mm | 0 m/s | 0 W/m² | - |
| 1778043566 | 9.44° C | 56% | 1009.6 hPa | 0 mm | 0 m/s | 0 W/m² | - |
| 1778043263 | 10° C | 55% | 1009.8 hPa | 0 mm | 0.45 m/s, 68° | 0 W/m² | - |
| 1778042960 | 10° C | 53% | 1009.7 hPa | 0 mm | 0 m/s | 0 W/m² | - |
| 1778042658 | 10° C | 56% | 1009.7 hPa | 0 mm | 0 m/s | 0 W/m² | - |
| 1778042355 | 10° C | 52% | 1009.8 hPa | 0 mm | 0.45 m/s, 72° | 0 W/m² | - |
| 1778042052 | 10° C | 57% | 1009.9 hPa | 0 mm | 0 m/s | 0 W/m² | - |
| 1778041750 | 10° C | 58% | 1009.7 hPa | 0 mm | 0 m/s | 0 W/m² | - |
| 1778041449 | 10° C | 56% | 1010 hPa | 0 mm | 0.45 m/s, 73° | 0 W/m² | - |
| 1778041147 | 10.56° C | 54% | 1009.9 hPa | 0 mm | 0 m/s | 0 W/m² | - |
| 1778040844 | 10° C | 54% | 1010 hPa | 0 mm | 0.45 m/s, 84° | 0 W/m² | - |
| 1778040541 | 10.56° C | 54% | 1010.1 hPa | 0 mm | 0 m/s | 0 W/m² | - |
| 1778040238 | 10.56° C | 54% | 1010 hPa | 0 mm | 0.45 m/s, 30° | 0 W/m² | - |
| 1778039934 | 10.56° C | 55% | 1010.1 hPa | 0 mm | 0 m/s | 0 W/m² | - |
| 1778039632 | 10.56° C | 55% | 1010.1 hPa | 0 mm | 0 m/s | 0 W/m² | - |
| 1778039329 | 10° C | 57% | 1010 hPa | 0 mm | 0 m/s | 0 W/m² | - |
| 1778039026 | 10° C | 62% | 1009.7 hPa | 0 mm | 0 m/s | 0 W/m² | - |
| 1778038723 | 9.44° C | 65% | 1009.8 hPa | 0 mm | 0 m/s | 0 W/m² | - |
| 1778038420 | 9.44° C | 67% | 1009.9 hPa | 0 mm | 0 m/s | 0 W/m² | - |
| 1778038117 | 9.44° C | 65% | 1009.9 hPa | 0 mm | 0 m/s | 0 W/m² | - |
| 1778037813 | 9.44° C | 63% | 1009.5 hPa | 0 mm | 0 m/s | 0 W/m² | - |
* Rain latest hour (hover to see other rain measurements)
** Current wind speed in m/s (hover to see current wind gust speed)